RYR2CK EIDW-EGKK

Flight info

Callsign RYR2CK
Flight time N/A
Altitude 29000
Route BOFUM3J BOFUM Q37 MALUD L15 KEPAD/N0465F310 L151 DISIT
Aircraft B738/M-SDE2E3FGHIRWXY/LB1

Departure

Time 2026-04-30 14:30
Airport Dublin Airport (EIDW)

Arrival

Time N/A
Airport London Gatwick Airport (EGKK)
Time Latitude Longitude Altitude Speed Heading
2026-04-30 13:54 53.42993 -6.24682 210 ft 0 kts
2026-04-30 14:18 53.42961 -6.24715 212 ft 3 kts 97°
2026-04-30 14:19 53.42954 -6.24783 221 ft 4 kts 32°
2026-04-30 14:19 53.42943 -6.24792 213 ft 4 kts 292°
2026-04-30 14:19 53.42939 -6.24752 211 ft 2 kts 275°
2026-04-30 14:20 53.42939 -6.24749 211 ft 0 kts 275°
2026-04-30 14:22 53.42939 -6.24755 211 ft 2 kts 277°
2026-04-30 14:22 53.42936 -6.24824 214 ft 9 kts 250°
2026-04-30 14:23 53.42958 -6.25078 210 ft 13 kts 274°
2026-04-30 14:23 53.42998 -6.25282 210 ft 7 kts 334°
2026-04-30 14:24 53.43109 -6.25365 220 ft 13 kts 337°
2026-04-30 14:24 53.43181 -6.25383 212 ft 11 kts 32°
2026-04-30 14:25 53.43204 -6.25147 210 ft 10 kts 96°
2026-04-30 14:25 53.43191 -6.24913 210 ft 10 kts 94°
2026-04-30 14:26 53.43194 -6.24603 210 ft 15 kts 92°
2026-04-30 14:26 53.43203 -6.24438 218 ft 14 kts 47°
2026-04-30 14:26 53.43335 -6.24283 210 ft 13 kts 92°
2026-04-30 14:27 53.43328 -6.24143 218 ft 12 kts 95°
2026-04-30 14:27 53.43320 -6.23990 210 ft 14 kts 95°
2026-04-30 14:27 53.43360 -6.23859 215 ft 11 kts 14°
2026-04-30 14:28 53.43488 -6.23928 216 ft 6 kts 276°
2026-04-30 14:28 53.43489 -6.23934 216 ft 0 kts 276°
2026-04-30 14:28 53.43491 -6.23974 213 ft 11 kts 274°
2026-04-30 14:29 53.43574 -6.25490 217 ft 128 kts 275°
2026-04-30 14:29 53.43761 -6.28667 533 ft 183 kts 277°
2026-04-30 14:30 53.45876 -6.35155 2349 ft 226 kts 340°
2026-04-30 14:31 53.49038 -6.35101 3296 ft 235 kts 12°
2026-04-30 14:31 53.52036 -6.33238 4220 ft 231 kts 62°
2026-04-30 14:31 53.52604 -6.30726 4391 ft 236 kts 90°
2026-04-30 14:32 53.52628 -6.24928 5453 ft 256 kts 95°
2026-04-30 14:32 53.52678 -6.21921 6228 ft 259 kts 94°
2026-04-30 14:32 53.52736 -6.18861 6843 ft 267 kts 92°
2026-04-30 14:33 53.52795 -6.15741 7614 ft 267 kts 93°
2026-04-30 14:33 53.52906 -6.09434 9128 ft 272 kts 94°
2026-04-30 14:33 53.52958 -6.06244 9888 ft 274 kts 94°
2026-04-30 14:34 53.53019 -6.03050 10157 ft 286 kts 91°
2026-04-30 14:34 53.53108 -5.99690 10798 ft 286 kts 94°
2026-04-30 14:34 53.53241 -5.96268 10936 ft 302 kts 90°
2026-04-30 14:34 53.53359 -5.92664 11209 ft 317 kts 95°
2026-04-30 14:35 53.53353 -5.86349 12067 ft 329 kts 95°
2026-04-30 14:35 53.53364 -5.81234 13055 ft 331 kts 95°
2026-04-30 14:35 53.53391 -5.77338 13757 ft 335 kts 95°
2026-04-30 14:36 53.53428 -5.73406 14416 ft 338 kts 95°
2026-04-30 14:36 53.53472 -5.69415 15069 ft 341 kts 95°
2026-04-30 14:36 53.53520 -5.65406 15729 ft 345 kts 95°
2026-04-30 14:36 53.53569 -5.61357 16375 ft 348 kts 95°
2026-04-30 14:37 53.53615 -5.57318 17002 ft 352 kts 95°
2026-04-30 14:37 53.53660 -5.53168 17641 ft 355 kts 95°
2026-04-30 14:37 53.53698 -5.48980 18269 ft 358 kts 96°
2026-04-30 14:37 53.53639 -5.44764 18744 ft 363 kts 98°
2026-04-30 14:38 53.53526 -5.40548 19251 ft 367 kts 99°
2026-04-30 14:38 53.53404 -5.36248 19798 ft 370 kts 99°
2026-04-30 14:38 53.53287 -5.31909 20345 ft 373 kts 98°
2026-04-30 14:38 53.53177 -5.27540 20871 ft 376 kts 98°
2026-04-30 14:39 53.53071 -5.23122 21383 ft 379 kts 98°
2026-04-30 14:39 53.52962 -5.18674 21880 ft 382 kts 98°
2026-04-30 14:39 53.52849 -5.14190 22441 ft 383 kts 99°
2026-04-30 14:40 53.52559 -5.05184 23445 ft 389 kts 99°
2026-04-30 14:40 53.52407 -5.00668 23868 ft 392 kts 99°
2026-04-30 14:40 53.52254 -4.96068 24257 ft 395 kts 99°
2026-04-30 14:40 53.52102 -4.91442 24722 ft 396 kts 99°
2026-04-30 14:41 53.51949 -4.86871 25253 ft 394 kts 99°
2026-04-30 14:41 53.51793 -4.82269 25763 ft 394 kts 99°
2026-04-30 14:41 53.51635 -4.77658 26224 ft 395 kts 99°
2026-04-30 14:41 53.51475 -4.73046 26697 ft 395 kts 98°
2026-04-30 14:42 53.51315 -4.68441 27190 ft 395 kts 98°
2026-04-30 14:42 53.51154 -4.63843 27656 ft 395 kts 98°
2026-04-30 14:42 53.50993 -4.59281 28177 ft 393 kts 98°
2026-04-30 14:42 53.50830 -4.54690 28660 ft 393 kts 98°
2026-04-30 14:43 53.50665 -4.50114 29085 ft 394 kts 98°
2026-04-30 14:43 53.50494 -4.45468 29112 ft 401 kts 98°
2026-04-30 14:43 53.50153 -4.36157 29121 ft 394 kts 98°
2026-04-30 14:44 53.49811 -4.27039 29150 ft 394 kts 98°
2026-04-30 14:44 53.49455 -4.17803 29144 ft 397 kts 98°
2026-04-30 14:45 53.49097 -4.08556 29132 ft 392 kts 99°
2026-04-30 14:45 53.48738 -3.99564 29141 ft 387 kts 100°
2026-04-30 14:46 53.47593 -3.90830 29147 ft 380 kts 114°
2026-04-30 14:46 53.46101 -3.83838 29138 ft 383 kts 115°
2026-04-30 14:47 53.44039 -3.74014 29138 ft 383 kts 114°
2026-04-30 14:47 53.42287 -3.65573 29144 ft 381 kts 115°
2026-04-30 14:48 53.39832 -3.57918 29142 ft 369 kts 132°
2026-04-30 14:48 53.37035 -3.52584 29143 ft 364 kts 135°
2026-04-30 14:49 53.33707 -3.46297 29142 ft 361 kts 135°
2026-04-30 14:49 53.30388 -3.39990 29147 ft 359 kts 135°
2026-04-30 14:50 53.25419 -3.30580 29156 ft 360 kts 135°
2026-04-30 14:51 53.20425 -3.21148 29163 ft 364 kts 135°
2026-04-30 14:52 53.15377 -3.11665 29159 ft 365 kts 135°
2026-04-30 14:52 53.10340 -3.02227 29157 ft 363 kts 135°
2026-04-30 14:53 53.05306 -2.92821 29161 ft 362 kts 135°
2026-04-30 14:54 52.98599 -2.80367 29177 ft 362 kts 135°
2026-04-30 14:55 52.93558 -2.71035 29178 ft 362 kts 135°
2026-04-30 14:56 52.86814 -2.58588 29183 ft 364 kts 135°
2026-04-30 14:57 52.81706 -2.49254 29173 ft 363 kts 137°
2026-04-30 14:57 52.77739 -2.44241 29187 ft 362 kts 148°
2026-04-30 14:58 52.73512 -2.39681 29183 ft 363 kts 148°
2026-04-30 14:58 52.67197 -2.32786 29173 ft 364 kts 148°
2026-04-30 15:00 52.56773 -2.21344 28840 ft 374 kts 147°
2026-04-30 15:00 52.52367 -2.16513 28067 ft 382 kts 147°
2026-04-30 15:01 52.47909 -2.11633 27231 ft 387 kts 147°
2026-04-30 15:01 52.45659 -2.09174 26802 ft 389 kts 147°
2026-04-30 15:01 52.41165 -2.04282 25969 ft 390 kts 147°
2026-04-30 15:02 52.38889 -2.01806 25550 ft 390 kts 147°
2026-04-30 15:02 52.36640 -1.99360 25131 ft 385 kts 147°
2026-04-30 15:03 52.30044 -1.92215 23931 ft 378 kts 147°
2026-04-30 15:03 52.25647 -1.87470 23073 ft 376 kts 147°
2026-04-30 15:04 52.21348 -1.82878 22244 ft 366 kts 147°
2026-04-30 15:04 52.14967 -1.76073 21066 ft 365 kts 147°
2026-04-30 15:05 52.08631 -1.69338 19955 ft 359 kts 147°
2026-04-30 15:06 52.04476 -1.64934 19335 ft 355 kts 148°
2026-04-30 15:06 52.00339 -1.60555 18696 ft 354 kts 148°
2026-04-30 15:07 51.96224 -1.56205 18024 ft 354 kts 147°
2026-04-30 15:07 51.92093 -1.51847 17405 ft 353 kts 147°
2026-04-30 15:08 51.88008 -1.47546 16788 ft 351 kts 147°
2026-04-30 15:08 51.81873 -1.41099 15864 ft 349 kts 147°
2026-04-30 15:09 51.77829 -1.36868 15302 ft 346 kts 147°
2026-04-30 15:09 51.73802 -1.32666 15186 ft 344 kts 147°
2026-04-30 15:10 51.69802 -1.28502 15183 ft 343 kts 147°
2026-04-30 15:11 51.61764 -1.20151 15154 ft 343 kts 147°
2026-04-30 15:11 51.57775 -1.16017 15159 ft 343 kts 147°
2026-04-30 15:12 51.51752 -1.09791 15157 ft 342 kts 147°
2026-04-30 15:13 51.47712 -1.05626 14376 ft 344 kts 147°
2026-04-30 15:14 51.39843 -0.97537 12914 ft 329 kts 147°
2026-04-30 15:14 51.34089 -0.91644 11749 ft 323 kts 147°
2026-04-30 15:16 51.25292 -0.82673 11143 ft 273 kts 147°
2026-04-30 15:17 51.18824 -0.76098 9980 ft 277 kts 148°
2026-04-30 15:18 51.10788 -0.67952 8061 ft 265 kts 148°
2026-04-30 15:19 51.06236 -0.63355 6958 ft 255 kts 145°